ACA276 CYYT-LFVP

Flight info

Callsign ACA276
Flight time 0h 48m
Altitude 26000
Route YYT
Aircraft A320/M-SDE3FGHIRWY/LB1

Departure

Time 2026-05-04 21:10
Airport St. John's International Airport (CYYT)

Arrival

Time 2026-05-04 21:59
Airport Saint-Pierre Pointe-Blanche Airport (LFVP)
Time Latitude Longitude Altitude Speed Heading
2026-05-04 20:51 47.61384 -52.74327 449 ft 0 kts 204°
2026-05-04 21:02 47.61397 -52.74319 449 ft 4 kts 204°
2026-05-04 21:03 47.61422 -52.74303 449 ft 4 kts 205°
2026-05-04 21:03 47.61447 -52.74290 449 ft 4 kts 188°
2026-05-04 21:03 47.61469 -52.74288 449 ft 0 kts 182°
2026-05-04 21:05 47.61468 -52.74288 449 ft 0 kts 182°
2026-05-04 21:05 47.61445 -52.74253 449 ft 14 kts 111°
2026-05-04 21:05 47.61395 -52.74075 449 ft 14 kts 113°
2026-05-04 21:05 47.61337 -52.73971 449 ft 13 kts 159°
2026-05-04 21:06 47.61272 -52.73897 448 ft 13 kts 101°
2026-05-04 21:06 47.61345 -52.73830 433 ft 17 kts 353°
2026-05-04 21:06 47.61483 -52.73844 426 ft 21 kts 358°
2026-05-04 21:06 47.61616 -52.73856 424 ft 17 kts 356°
2026-05-04 21:07 47.61748 -52.73868 440 ft 22 kts 356°
2026-05-04 21:07 47.61888 -52.73883 441 ft 19 kts 355°
2026-05-04 21:07 47.62017 -52.73896 436 ft 18 kts 356°
2026-05-04 21:07 47.62143 -52.73908 439 ft 19 kts 356°
2026-05-04 21:08 47.62269 -52.73920 434 ft 17 kts 356°
2026-05-04 21:08 47.62405 -52.73932 430 ft 20 kts 356°
2026-05-04 21:08 47.62497 -52.73941 429 ft 9 kts 355°
2026-05-04 21:08 47.62516 -52.73990 431 ft 5 kts 271°
2026-05-04 21:09 47.62515 -52.74003 441 ft 0 kts 266°
2026-05-04 21:09 47.62515 -52.74006 430 ft 3 kts 266°
2026-05-04 21:09 47.62497 -52.74365 448 ft 70 kts 266°
2026-05-04 21:10 47.62447 -52.75412 454 ft 129 kts 263°
2026-05-04 21:10 47.62424 -52.76765 1025 ft 132 kts 262°
2026-05-04 21:10 47.62418 -52.78106 1930 ft 127 kts 257°
2026-05-04 21:10 47.62357 -52.79447 2612 ft 138 kts 257°
2026-05-04 21:11 47.62269 -52.80973 3005 ft 161 kts 258°
2026-05-04 21:11 47.62170 -52.82772 3544 ft 187 kts 259°
2026-05-04 21:11 47.62066 -52.84791 4279 ft 203 kts 260°
2026-05-04 21:11 47.61654 -52.86788 5214 ft 207 kts 239°
2026-05-04 21:12 47.60553 -52.88229 6196 ft 224 kts 211°
2026-05-04 21:12 47.58933 -52.88520 7185 ft 252 kts 184°
2026-05-04 21:12 47.57182 -52.88046 8163 ft 258 kts 181°
2026-05-04 21:12 47.55408 -52.87485 9120 ft 262 kts 180°
2026-05-04 21:13 47.53635 -52.86900 10005 ft 267 kts 180°
2026-05-04 21:13 47.51781 -52.86530 10523 ft 270 kts 196°
2026-05-04 21:13 47.50068 -52.87553 10833 ft 271 kts 225°
2026-05-04 21:13 47.48888 -52.89813 11101 ft 290 kts 241°
2026-05-04 21:14 47.47941 -52.92565 11286 ft 312 kts 246°
2026-05-04 21:14 47.47151 -52.95669 11514 ft 331 kts 253°
2026-05-04 21:14 47.46605 -52.98936 12621 ft 320 kts 255°
2026-05-04 21:14 47.46087 -53.02043 14095 ft 302 kts 255°
2026-05-04 21:15 47.45605 -53.04988 15336 ft 292 kts 255°
2026-05-04 21:15 47.45140 -53.07904 16364 ft 284 kts 256°
2026-05-04 21:15 47.44713 -53.10653 17790 ft 268 kts 256°
2026-05-04 21:15 47.44303 -53.13318 18634 ft 266 kts 256°
2026-05-04 21:16 47.43894 -53.15984 19330 ft 268 kts 256°
2026-05-04 21:16 47.43481 -53.18678 20014 ft 270 kts 255°
2026-05-04 21:16 47.43065 -53.21396 20676 ft 273 kts 255°
2026-05-04 21:16 47.42650 -53.24108 21326 ft 275 kts 255°
2026-05-04 21:17 47.42219 -53.26921 21998 ft 278 kts 255°
2026-05-04 21:17 47.41788 -53.29716 22633 ft 281 kts 255°
2026-05-04 21:17 47.41351 -53.32547 23242 ft 284 kts 255°
2026-05-04 21:17 47.40915 -53.35380 23470 ft 287 kts 255°
2026-05-04 21:18 47.40473 -53.38253 23528 ft 287 kts 255°
2026-05-04 21:18 47.40029 -53.41125 23532 ft 286 kts 255°
2026-05-04 21:18 47.39585 -53.43991 23540 ft 286 kts 255°
2026-05-04 21:18 47.39142 -53.46851 23545 ft 286 kts 255°
2026-05-04 21:19 47.38698 -53.49708 23540 ft 286 kts 255°
2026-05-04 21:19 47.38254 -53.52572 23546 ft 286 kts 255°
2026-05-04 21:19 47.37811 -53.55413 23542 ft 280 kts 255°
2026-05-04 21:19 47.37378 -53.58181 23544 ft 274 kts 256°
2026-05-04 21:20 47.36949 -53.60915 23530 ft 273 kts 256°
2026-05-04 21:20 47.36528 -53.63601 23534 ft 272 kts 255°
2026-05-04 21:20 47.36100 -53.66321 23535 ft 272 kts 255°
2026-05-04 21:20 47.35670 -53.69044 23534 ft 272 kts 255°
2026-05-04 21:21 47.35241 -53.71763 23537 ft 272 kts 255°
2026-05-04 21:21 47.34813 -53.74483 23537 ft 272 kts 255°
2026-05-04 21:21 47.34385 -53.77203 23537 ft 272 kts 255°
2026-05-04 21:21 47.33956 -53.79922 23538 ft 272 kts 255°
2026-05-04 21:22 47.33528 -53.82638 23519 ft 272 kts 255°
2026-05-04 21:22 47.33098 -53.85357 23528 ft 272 kts 255°
2026-05-04 21:22 47.32664 -53.88081 23529 ft 273 kts 255°
2026-05-04 21:22 47.32230 -53.90800 23530 ft 273 kts 255°
2026-05-04 21:23 47.31795 -53.93521 23533 ft 272 kts 255°
2026-05-04 21:23 47.31357 -53.96236 23533 ft 272 kts 255°
2026-05-04 21:23 47.30919 -53.98956 23534 ft 272 kts 255°
2026-05-04 21:23 47.30486 -54.01638 23535 ft 273 kts 255°
2026-05-04 21:24 47.30047 -54.04353 23536 ft 272 kts 255°
2026-05-04 21:24 47.29609 -54.07062 23542 ft 272 kts 255°
2026-05-04 21:24 47.29173 -54.09769 23544 ft 272 kts 255°
2026-05-04 21:24 47.28737 -54.12476 23548 ft 271 kts 255°
2026-05-04 21:25 47.28300 -54.15180 23550 ft 271 kts 255°
2026-05-04 21:25 47.27862 -54.17884 23548 ft 271 kts 255°
2026-05-04 21:25 47.27424 -54.20587 23552 ft 271 kts 255°
2026-05-04 21:25 47.26986 -54.23296 23567 ft 271 kts 255°
2026-05-04 21:26 47.26545 -54.26003 23567 ft 271 kts 255°
2026-05-04 21:26 47.26105 -54.28703 23568 ft 271 kts 255°
2026-05-04 21:26 47.25665 -54.31402 23569 ft 271 kts 255°
2026-05-04 21:26 47.25223 -54.34107 23570 ft 271 kts 255°
2026-05-04 21:27 47.24786 -54.36770 23576 ft 271 kts 255°
2026-05-04 21:27 47.24342 -54.39469 23576 ft 271 kts 255°
2026-05-04 21:27 47.23898 -54.42163 23594 ft 271 kts 255°
2026-05-04 21:27 47.23455 -54.44860 23594 ft 271 kts 255°
2026-05-04 21:28 47.23013 -54.47558 23592 ft 271 kts 255°
2026-05-04 21:28 47.22568 -54.50251 23594 ft 271 kts 255°
2026-05-04 21:28 47.22121 -54.52944 23590 ft 271 kts 256°
2026-05-04 21:28 47.21675 -54.55637 23591 ft 271 kts 256°
2026-05-04 21:29 47.21227 -54.58328 23594 ft 271 kts 256°
2026-05-04 21:29 47.20778 -54.61024 23606 ft 271 kts 256°
2026-05-04 21:29 47.20330 -54.63715 23609 ft 271 kts 255°
2026-05-04 21:29 47.19881 -54.66398 23610 ft 271 kts 255°
2026-05-04 21:30 47.19430 -54.69090 23610 ft 271 kts 255°
2026-05-04 21:30 47.18986 -54.71741 23610 ft 271 kts 255°
2026-05-04 21:30 47.18531 -54.74458 23611 ft 271 kts 256°
2026-05-04 21:30 47.18089 -54.77110 23605 ft 271 kts 256°
2026-05-04 21:31 47.17185 -54.82486 23631 ft 271 kts 255°
2026-05-04 21:31 47.16731 -54.85165 23632 ft 271 kts 255°
2026-05-04 21:31 47.16274 -54.87856 23641 ft 271 kts 256°
2026-05-04 21:32 47.15817 -54.90543 23653 ft 271 kts 256°
2026-05-04 21:32 47.15513 -54.92324 23651 ft 271 kts 256°
2026-05-04 21:32 47.14908 -54.95888 23647 ft 271 kts 256°
2026-05-04 21:32 47.14600 -54.97700 23647 ft 271 kts 256°
2026-05-04 21:33 47.13996 -55.01261 23629 ft 271 kts 256°
2026-05-04 21:33 47.13539 -55.03951 23630 ft 271 kts 256°
2026-05-04 21:33 47.13229 -55.05774 23631 ft 271 kts 256°
2026-05-04 21:33 47.12771 -55.08465 23632 ft 272 kts 256°
2026-05-04 21:34 47.12313 -55.11153 23593 ft 270 kts 256°
2026-05-04 21:34 47.11865 -55.13783 23243 ft 268 kts 256°
2026-05-04 21:34 47.11411 -55.16435 22765 ft 266 kts 256°
2026-05-04 21:34 47.10959 -55.19060 22355 ft 264 kts 256°
2026-05-04 21:35 47.10508 -55.21665 21956 ft 262 kts 256°
2026-05-04 21:35 47.10059 -55.24250 21563 ft 260 kts 256°
2026-05-04 21:35 47.09613 -55.26817 21175 ft 258 kts 256°
2026-05-04 21:35 47.09173 -55.29368 20794 ft 257 kts 256°
2026-05-04 21:36 47.08736 -55.31898 20421 ft 255 kts 256°
2026-05-04 21:36 47.08298 -55.34411 20046 ft 253 kts 256°
2026-05-04 21:36 47.07865 -55.36899 19691 ft 252 kts 256°
2026-05-04 21:36 47.07432 -55.39383 19391 ft 250 kts 256°
2026-05-04 21:37 47.07002 -55.41849 19012 ft 249 kts 256°
2026-05-04 21:37 47.06528 -55.44255 18682 ft 248 kts 250°
2026-05-04 21:37 47.05742 -55.46495 18356 ft 248 kts 242°
2026-05-04 21:37 47.04845 -55.48650 18067 ft 245 kts 242°
2026-05-04 21:38 47.03980 -55.50735 17758 ft 235 kts 243°
2026-05-04 21:38 47.03140 -55.52770 17288 ft 232 kts 243°
2026-05-04 21:38 47.02309 -55.54778 16848 ft 229 kts 243°
2026-05-04 21:38 47.01484 -55.56759 16376 ft 227 kts 243°
2026-05-04 21:39 47.00668 -55.58725 15980 ft 226 kts 243°
2026-05-04 21:39 46.99857 -55.60680 15710 ft 223 kts 243°
2026-05-04 21:39 46.99052 -55.62620 15451 ft 222 kts 243°
2026-05-04 21:39 46.98255 -55.64539 15161 ft 221 kts 243°
2026-05-04 21:40 46.97458 -55.66459 14888 ft 220 kts 243°
2026-05-04 21:40 46.96666 -55.68365 14597 ft 218 kts 243°
2026-05-04 21:40 46.95880 -55.70257 14288 ft 217 kts 243°
2026-05-04 21:40 46.95104 -55.72121 13852 ft 213 kts 243°
2026-05-04 21:41 46.94336 -55.73974 13355 ft 212 kts 244°
2026-05-04 21:41 46.93581 -55.75809 12822 ft 209 kts 244°
2026-05-04 21:41 46.92834 -55.77632 12269 ft 208 kts 244°
2026-05-04 21:41 46.92084 -55.79467 11426 ft 216 kts 244°
2026-05-04 21:42 46.91301 -55.81391 10442 ft 230 kts 244°
2026-05-04 21:42 46.90462 -55.83448 9565 ft 237 kts 244°
2026-05-04 21:42 46.89617 -55.85501 8959 ft 231 kts 244°
2026-05-04 21:42 46.88822 -55.87411 8804 ft 209 kts 244°
2026-05-04 21:43 46.88085 -55.89179 8411 ft 199 kts 245°
2026-05-04 21:43 46.87377 -55.90891 7878 ft 196 kts 245°
2026-05-04 21:43 46.86688 -55.92562 7187 ft 189 kts 245°
2026-05-04 21:43 46.86019 -55.94197 6343 ft 186 kts 246°
2026-05-04 21:44 46.85361 -55.95801 5493 ft 182 kts 246°
2026-05-04 21:44 46.84710 -55.97370 4653 ft 179 kts 245°
2026-05-04 21:44 46.84070 -55.98907 3853 ft 174 kts 245°
2026-05-04 21:44 46.83447 -56.00400 3055 ft 170 kts 245°
2026-05-04 21:45 46.82846 -56.01839 2272 ft 167 kts 245°
2026-05-04 21:45 46.82269 -56.03214 1917 ft 146 kts 245°
2026-05-04 21:45 46.81772 -56.04399 1901 ft 126 kts 245°
2026-05-04 21:45 46.81337 -56.05440 1799 ft 116 kts 246°
2026-05-04 21:46 46.80924 -56.06430 1658 ft 112 kts 245°
2026-05-04 21:46 46.80520 -56.07399 1502 ft 111 kts 245°
2026-05-04 21:46 46.80117 -56.08363 1358 ft 111 kts 244°
2026-05-04 21:46 46.79713 -56.09328 1194 ft 111 kts 243°
2026-05-04 21:47 46.79309 -56.10293 1047 ft 112 kts 242°
2026-05-04 21:47 46.78901 -56.11261 889 ft 113 kts 240°
2026-05-04 21:47 46.78486 -56.12221 718 ft 113 kts 239°
2026-05-04 21:47 46.78095 -56.13205 589 ft 110 kts 240°
2026-05-04 21:48 46.77683 -56.14188 420 ft 113 kts 237°
2026-05-04 21:48 46.77279 -56.15157 306 ft 112 kts 238°
2026-05-04 21:48 46.76870 -56.16117 126 ft 110 kts 236°
2026-05-04 21:48 46.76483 -56.17057 31 ft 99 kts 233°
2026-05-04 21:49 46.76165 -56.17893 160 ft 106 kts 236°
2026-05-04 21:49 46.75742 -56.18949 746 ft 137 kts 239°
2026-05-04 21:49 46.75191 -56.20203 1579 ft 155 kts 243°
2026-05-04 21:49 46.74513 -56.21690 1924 ft 201 kts 242°
2026-05-04 21:50 46.73565 -56.23455 2193 ft 244 kts 228°
2026-05-04 21:50 46.72064 -56.24478 2452 ft 237 kts 199°
2026-05-04 21:50 46.70454 -56.24153 2702 ft 238 kts 167°
2026-05-04 21:50 46.69196 -56.22589 2933 ft 248 kts 131°
2026-05-04 21:51 46.68600 -56.20168 3021 ft 262 kts 95°
2026-05-04 21:51 46.68841 -56.17559 3032 ft 261 kts 69°
2026-05-04 21:51 46.69473 -56.14994 3045 ft 290 kts 64°
2026-05-04 21:51 46.70370 -56.12254 3020 ft 304 kts 55°
2026-05-04 21:52 46.71436 -56.09578 3027 ft 307 kts 53°
2026-05-04 21:52 46.72532 -56.06891 3015 ft 307 kts 53°
2026-05-04 21:52 46.73620 -56.04231 2698 ft 304 kts 53°
2026-05-04 21:52 46.74654 -56.01528 2441 ft 307 kts 60°
2026-05-04 21:53 46.75522 -55.98671 2207 ft 309 kts 63°
2026-05-04 21:53 46.76386 -55.95852 2043 ft 306 kts 56°
2026-05-04 21:53 46.77707 -55.93632 2030 ft 273 kts 25°
2026-05-04 21:53 46.79303 -55.92677 2037 ft 227 kts 351°
2026-05-04 21:54 46.80698 -55.93015 2038 ft 189 kts 316°
2026-05-04 21:54 46.81488 -55.94316 2046 ft 164 kts 282°
2026-05-04 21:54 46.81750 -55.95916 2042 ft 162 kts 274°
2026-05-04 21:54 46.81913 -55.97542 2039 ft 162 kts 274°
2026-05-04 21:55 46.82057 -55.99178 2033 ft 162 kts 273°
2026-05-04 21:55 46.82196 -56.00807 2036 ft 162 kts 273°
2026-05-04 21:55 46.82293 -56.02437 2033 ft 160 kts 264°
2026-05-04 21:55 46.81958 -56.03985 1958 ft 162 kts 245°
2026-05-04 21:56 46.81383 -56.05351 1808 ft 154 kts 244°
2026-05-04 21:56 46.80837 -56.06647 1645 ft 148 kts 244°
2026-05-04 21:56 46.80311 -56.07900 1439 ft 139 kts 244°
2026-05-04 21:56 46.79838 -56.09025 1246 ft 120 kts 243°
2026-05-04 21:57 46.79415 -56.10037 1088 ft 114 kts 243°
2026-05-04 21:57 46.79011 -56.11003 928 ft 113 kts 242°
2026-05-04 21:57 46.78599 -56.11987 769 ft 111 kts 239°
2026-05-04 21:57 46.78193 -56.12941 582 ft 111 kts 237°
2026-05-04 21:58 46.77800 -56.13890 450 ft 109 kts 238°
2026-05-04 21:58 46.77408 -56.14828 327 ft 109 kts 236°
2026-05-04 21:58 46.77003 -56.15791 177 ft 112 kts 237°
2026-05-04 21:58 46.76606 -56.16740 33 ft 108 kts 237°
2026-05-04 21:59 46.76287 -56.17495 28 ft 61 kts 238°
2026-05-04 21:59 46.76127 -56.17874 37 ft 33 kts 238°
2026-05-04 21:59 46.76054 -56.18051 33 ft 9 kts 252°
2026-05-04 21:59 46.76083 -56.18131 33 ft 11 kts 334°
2026-05-04 22:00 46.76155 -56.18142 33 ft 10 kts 359°
2026-05-04 22:00 46.76227 -56.18144 32 ft 11 kts 359°
2026-05-04 22:00 46.76304 -56.18145 32 ft 11 kts
2026-05-04 22:00 46.76355 -56.18084 29 ft 5 kts 61°
2026-05-04 22:01 46.76381 -56.18015 30 ft 10 kts 62°
2026-05-04 22:01 46.76397 -56.17959 29 ft 4 kts 66°
2026-05-04 22:01 46.76427 -56.17931 29 ft 2 kts 26°
2026-05-04 22:01 46.76438 -56.17923 29 ft 0 kts 24°